Location: Brentwood
(37.9320°N, 121.6950°W)
Time: 00:34:40
(UTC-08:00)

ISS - Visible Passes

Search period start: 22 January 2019 00:00
Search period end: 01 February 2019 00:00
Orbit: 404 x 410 km, 51.6° (Epoch: 23 January)

Date Brightness Start Highest point End Pass type
(mag) Time Alt. Az. Time Alt. Az. Time Alt. Az.
22 Jan -3.2 18:08:25 10° SSW 18:11:32 41° SE 18:13:43 17° ENE visible
22 Jan -0.8 19:45:30 10° W 19:46:27 15° WNW 19:46:27 15° WNW visible
23 Jan -2.6 18:53:38 10° WSW 18:56:43 36° NNW 18:57:28 31° N visible
24 Jan -3.6 18:02:01 10° WSW 18:05:17 68° NW 18:08:25 11° NE visible
24 Jan -0.7 19:40:36 10° NW 19:41:08 12° NW 19:41:08 12° NW visible
25 Jan -1.6 18:48:17 10° WNW 18:50:43 19° NNW 18:52:00 15° N visible
26 Jan -2.2 17:56:14 10° W 17:59:10 28° NNW 18:02:06 10° NNE visible
27 Jan -1.2 18:43:32 10° NW 18:44:51 12° NNW 18:46:10 10° N visible
28 Jan -1.4 17:51:01 10° WNW 17:53:09 16° NNW 17:55:18 10° NNE visible
